カタログに戻る

GSAT 9

運用中通信GEO
NORAD 42695·PAYLOAD·🇮🇳 India

打ち上げ May 5, 2017 から Satish Dhawan Space Centre

Loading…

TLE

最新Source: Space-Track

元期: Sep 14, 2026, 14:15 UTC

1 42695U 17024A   26257.59442775 -.00000293  00000-0  00000-0 0  9990
2 42695   0.0298 112.9872 0002736  68.8553 122.9939  1.00267936 34196

AllMySatでGSAT 9をリアルタイム追跡

Download on the App Store